User: anonymous   Login
Location: Unspecified
(0.0000°N, 0.0000°E)
Time: 23:24:50
(UTC+02:00)
Language:

Centaur D-1AR AC-41 - Orbit

View from above orbital plane
View from above orbital plane
View from above satellite
View from above satellite

Ground track
Ground track

The orbit data is extracted from the following two-line orbital elements,

1 10976U 78068B   15180.18897558 -.00000215  00000-0 -72685-3 0  9999
2 10976 021.6333 089.5298 7182077 178.9089 357.8910 02.22296183300256
Epoch (UTC): 29 June 2015 04:32:07
Eccentricity: 0.7182077
inclination: 21.6333°
perigee height: 610 km
apogee height: 36232 km
right ascension of ascending node: 89.5298°
argument of perigee: 178.9089°
revolutions per day: 2.22296183
mean anomaly at epoch: 357.8910°
orbit number at epoch: 30025

The dashed part of the orbit path shows where the satellite is in the earth's shadow,  

DLR